Regional Weather Roundup
Issued by NWS

Home | Current Version | Previous Version | Text Only | Print | Product List | Glossary Off
Versions: 1 2 3 4 5 6 7 8 9 10 11 12 13 14 15 16 17 18 19 20 21 22 23 24 25 26 27 28 29 30 31 32 33 34 35 36 37 38 39 40 41 42 43 44 45 46 47 48 49 50

000
ASUS43 KIND 012259
RWRIN

WEATHER ROUNDUP FOR INDIANA
NATIONAL WEATHER SERVICE INDIANAPOLIS IN
700 PM EDT TUE SEP 01 2015

NOTE: "FAIR" INDICATES FEW OR NO CLOUDS BELOW 12,000 FEET WITH NO
SIGNIFICANT WEATHER AND/OR OBSTRUCTIONS TO VISIBILITY.

* - STATION DOES NOT REPORT WEATHER SUCH AS PRECIPITATION OR FOG.

+ - STATION NOT QUALITY CONTROLLED BY THE NATIONAL WEATHER SERVICE.
    USE DATA WITH CAUTION...ESPECIALLY DEWPOINT AND RELATIVE
    HUMIDITY OBSERVATIONS.

INZ001>003-010>013-019-020-020000-
NORTHWEST INDIANA

CITY           SKY/WX    TMP DP  RH WIND       PRES   REMARKS
GARY /AIRPORT/ MOSUNNY   86  66  51 S9        30.02S
KNOX *+        SUNNY     82  68  61 S3        30.03S
MONTICELLO +   SUNNY     82  69  64 SW12      30.05R
RENSSELAER +   SUNNY     81  72  74 SW9       30.05S

$$

LMZ046-743>745-020000-
SOUTHERN LAKE MICHIGAN

STATION/POSITION TIME  TEMP    WIND        PRES    WAVE
                       AIR SEA DIR/SP/G            HT
                 (UTC) (F)     (DEG/KT/KT) (MB)    (FT)
BURNS HARBOR     2200   84     190/  8/ 11 1016.6F
5NW MICH CITY    2200   78 73  220/  4/  6   N/A     1

$$

INZ004-005-014>016-021>024-020000-
NORTH CENTRAL INDIANA

CITY           SKY/WX    TMP DP  RH WIND       PRES   REMARKS
ELKHART        SUNNY     84  72  65 SW5       30.04R
GOSHEN         MOSUNNY   83  72  69 S7        30.04R
PERU/GRISSOM   SUNNY     84  68  58 SW8       30.06R
SOUTH BEND     MOSUNNY   83  70  64 SW8       30.04S
WARSAW +       MOSUNNY   82  70  65 SW5       30.06R

$$

INZ006>009-017-018-025>027-020000-
NORTHEAST INDIANA

CITY           SKY/WX    TMP DP  RH WIND       PRES   REMARKS
ANGOLA *+      MOSUNNY   82  73  74 S5        30.06R
FORT WAYNE     MOSUNNY   81  69  67 S12       30.07S

$$

INZ028-029-035-036-043>045-051>053-020000-
WEST CENTRAL INDIANA

CITY           SKY/WX    TMP DP  RH WIND       PRES   REMARKS
CRAWFORDSVL +  SUNNY     80  61  51 S3        30.08S
GREENCASTLE +  SUNNY     81  64  57 S3        30.09S
LAFAYETTE      SUNNY     82  67  60 SW5       30.05F
TERRE HAUTE    SUNNY     85  67  54 SW8       30.07S

$$

INZ030>032-037>040-046>048-054>057-064-065-020000-
CENTRAL INDIANA

CITY           SKY/WX    TMP DP  RH WIND       PRES   REMARKS
FRANKFORT +    SUNNY     82  67  61 S8        30.09S
GREENWOOD *+   MOSUNNY   82  63  51 W7        30.09F
INDIANAPOLIS   MOSUNNY   82  65  56 SW9       30.08S
-EAGLE CREEK   MOSUNNY   83  66  56 SW6       30.08R
KOKOMO *+      SUNNY     84  66  54 SW10      30.07R
MT COMFORT *+  MOSUNNY   82  57  42 S6        30.09S
SHELBYVILLE    MOSUNNY   85  67  54 SW6       30.08S

$$

INZ033-034-041-042-049-050-058-059-020000-
EAST CENTRAL INDIANA

CITY           SKY/WX    TMP DP  RH WIND       PRES   REMARKS
MUNCIE         SUNNY     80  67  64 S6        30.08F

$$

INZ060-061-067>069-081>083-085>088-020000-
SOUTHWEST INDIANA

CITY           SKY/WX    TMP DP  RH WIND       PRES   REMARKS
EVANSVILLE     SUNNY     88  66  48 CALM      30.07S
HUNTINGBURG *+ SUNNY     86  66  51 CALM      30.09S

$$

INZ062-063-066-070>080-084-089>092-020000-
SOUTH CENTRAL AND SOUTHEAST INDIANA

CITY           SKY/WX    TMP DP  RH WIND       PRES   REMARKS
BLOOMINGTON    SUNNY     84  68  58 SW5       30.10R
MADISON *+     SUNNY     84  64  51 CALM      30.11S
SEYMOUR +      MOSUNNY   84  68  58 SW3       30.08S

$$




USA.gov is the U.S. government's official web portal to all federal, state and local government web resources and services.